Weather History for KASW - April, 2013

Change the Weather History Date:

Friday, April 19, 2013

  Actual Average Record
Temperature  
Mean Temperature 46 °F -  
Max Temperature 59 °F 61 °F 86 °F (1977)
Min Temperature 33 °F 41 °F 22 °F (1956)
Degree Days  
Heating Degree Days 19    
Moisture  
Dew Point 34 °F    
Average Humidity 86    
Maximum Humidity 100    
Minimum Humidity 75    
Precipitation  
Precipitation 0.76 in - - ()
Sea Level Pressure  
Sea Level Pressure 29.66 in    
Wind  
Wind Speed 16 mph (WSW)    
Max Wind Speed 25 mph    
Max Gust Speed 36 mph    
Visibility 9 miles    
Events Rain , Snow    
Averages and records for this station are not official NWS values.
T = Trace of Precipitation, MM = Missing Value Source: NWS Daily Summary

Daily Weather History Graph

Daily Weather History Graph

Search for Another Location

Airport or City:

Trip Planner

Search our weather history database for the weather conditions in past years. The results will help you decide how hot, cold, wet, or windy it might be!

Date:

Astronomy

Apr. 19, 2013 Rise Set
Actual Time 6:57 AM EDT 8:28 PM EDT
Civil Twilight 6:28 AM EDT 8:57 PM EDT
Nautical Twilight 5:53 AM EDT 9:32 PM EDT
Astronomical Twilight 5:16 AM EDT 10:09 PM EDT
Moon 2:08 PM EDT (4/19) 3:16 AM EDT (4/19)
Length of Visible Light 14h 28m
Length of Day
13h 30m
First Quarter, 61% of the Moon is Illuminated
Apr 19
First Quarter
Apr 25
Full
May 2
Last Quarter
May 9
New
May 18
First Quarter

Hourly Weather History & Observations

Time (EDT) Temp. Windchill Dew Point Humidity Pressure Visibility Wind Dir Wind Speed Gust Speed Precip Events Conditions
12:15 AM 59.0 °F - 59.0 °F 100% 29.54 in 7.0 mi South 10.4 mph - 0.03 in Rain Rain
12:35 AM 55.4 °F - 53.6 °F 94% 29.55 in 7.0 mi WSW 13.8 mph - 0.09 in Rain Rain
12:55 AM 53.6 °F - 53.6 °F 100% 29.54 in 7.0 mi WSW 12.7 mph 18.4 mph 0.17 in Rain Rain
1:15 AM 51.8 °F - 51.8 °F 100% 29.55 in 7.0 mi WSW 13.8 mph 18.4 mph 0.06 in Rain Rain
1:35 AM 50.0 °F - 48.2 °F 94% 29.55 in 7.0 mi West 13.8 mph 17.3 mph 0.15 in Rain Heavy Rain
1:55 AM 46.4 °F 40.7 °F 46.4 °F 100% 29.54 in 7.0 mi WSW 12.7 mph - 0.22 in Rain Rain
2:15 AM 46.4 °F 40.1 °F 44.6 °F 93% 29.52 in 7.0 mi West 15.0 mph 25.3 mph 0.06 in Rain Rain
2:35 AM 44.6 °F 37.8 °F 42.8 °F 93% 29.54 in 7.0 mi West 15.0 mph 24.2 mph 0.12 in Rain Rain
2:55 AM 44.6 °F 37.8 °F 42.8 °F 93% 29.55 in 7.0 mi West 15.0 mph 19.6 mph 0.20 in Rain Rain
3:15 AM 42.8 °F 35.8 °F 42.8 °F 100% 29.48 in 10.0 mi West 13.8 mph - 0.04 in Rain Rain
3:35 AM 42.8 °F 35.4 °F 41.0 °F 93% 29.53 in 10.0 mi West 15.0 mph - 0.08 in Rain Rain
3:55 AM 41.0 °F 33.9 °F 39.2 °F 93% 29.51 in 10.0 mi West 12.7 mph 25.3 mph 0.12 in Rain Rain
4:15 AM 41.0 °F 33.1 °F 37.4 °F 87% 29.51 in 10.0 mi West 15.0 mph - 0.02 in Rain Rain
4:35 AM 41.0 °F 32.8 °F 35.6 °F 81% 29.52 in 10.0 mi West 16.1 mph 23.0 mph 0.03 in Rain Light Rain
4:55 AM 39.2 °F 28.7 °F 35.6 °F 87% 29.54 in 7.0 mi West 23.0 mph 28.8 mph 0.03 in Rain Light Rain
5:15 AM 37.4 °F 27.2 °F 35.6 °F 93% 29.53 in 10.0 mi West 19.6 mph 26.5 mph N/A Rain Light Rain
5:35 AM 37.4 °F 27.2 °F 33.8 °F 87% 29.54 in 10.0 mi West 19.6 mph 26.5 mph N/A Rain Light Rain
5:55 AM 37.4 °F 27.2 °F 33.8 °F 87% 29.54 in 10.0 mi West 19.6 mph 26.5 mph N/A   Overcast
6:15 AM 37.4 °F 27.8 °F 32.0 °F 81% 29.54 in 10.0 mi West 17.3 mph 28.8 mph N/A   Overcast
6:35 AM 35.6 °F 23.7 °F 32.0 °F 87% 29.55 in 10.0 mi West 24.2 mph 31.1 mph N/A   Overcast
6:55 AM 35.6 °F 23.4 °F 32.0 °F 87% 29.55 in 10.0 mi West 25.3 mph 33.4 mph N/A   Overcast
7:15 AM 35.6 °F 26.6 °F 32.0 °F 87% 29.56 in 10.0 mi West 13.8 mph 21.9 mph N/A   Overcast
7:35 AM 35.6 °F 26.6 °F 32.0 °F 87% 29.57 in 10.0 mi West 13.8 mph 24.2 mph N/A   Overcast
7:55 AM 35.6 °F 23.7 °F 30.2 °F 81% 29.58 in 10.0 mi West 24.2 mph 28.8 mph N/A   Overcast
8:15 AM 35.6 °F 25.2 °F 30.2 °F 81% 29.58 in 10.0 mi WSW 18.4 mph 24.2 mph N/A   Overcast
8:35 AM 35.6 °F 24.5 °F 30.2 °F 81% 29.59 in 10.0 mi West 20.7 mph 31.1 mph N/A   Overcast
8:55 AM 35.6 °F 24.5 °F 30.2 °F 81% 29.59 in 10.0 mi West 20.7 mph 28.8 mph N/A   Overcast
9:15 AM 35.6 °F 25.9 °F 30.2 °F 81% 29.59 in 10.0 mi West 16.1 mph 26.5 mph N/A   Overcast
9:35 AM 35.6 °F 26.2 °F 30.2 °F 81% 29.60 in 10.0 mi WSW 15.0 mph 25.3 mph N/A   Overcast
9:55 AM 35.6 °F 25.5 °F 30.2 °F 81% 29.60 in 10.0 mi WSW 17.3 mph 31.1 mph N/A   Overcast
10:15 AM 35.6 °F 24.0 °F 30.2 °F 81% 29.60 in 10.0 mi WSW 23.0 mph 29.9 mph N/A   Overcast
10:35 AM 35.6 °F 25.2 °F 30.2 °F 81% 29.62 in 10.0 mi WSW 18.4 mph 27.6 mph N/A   Overcast
10:55 AM 35.6 °F 25.2 °F 30.2 °F 81% 29.63 in 10.0 mi WSW 18.4 mph 27.6 mph N/A   Overcast
11:15 AM 35.6 °F 23.7 °F 30.2 °F 81% 29.63 in 7.0 mi WSW 24.2 mph 31.1 mph N/A   Overcast
11:35 AM 35.6 °F 26.2 °F 32.0 °F 87% 29.64 in 5.0 mi WSW 15.0 mph 26.5 mph N/A Snow Light Snow
11:55 AM 35.6 °F 24.0 °F 32.0 °F 87% 29.65 in 10.0 mi WSW 23.0 mph 28.8 mph N/A   Overcast
12:15 PM 37.4 °F 26.1 °F 32.0 °F 81% 29.64 in 10.0 mi WSW 24.2 mph 31.1 mph N/A   Overcast
12:35 PM 37.4 °F 27.2 °F 30.2 °F 75% 29.64 in 10.0 mi WSW 19.6 mph 27.6 mph N/A   Overcast
12:55 PM 37.4 °F 26.9 °F 32.0 °F 81% 29.65 in 10.0 mi WSW 20.7 mph 31.1 mph N/A   Overcast
1:15 PM 35.6 °F 24.5 °F 30.2 °F 81% 29.64 in 10.0 mi WSW 20.7 mph 29.9 mph N/A   Overcast
1:35 PM 35.6 °F 25.2 °F 30.2 °F 81% 29.65 in 10.0 mi WSW 18.4 mph 26.5 mph N/A   Overcast
1:55 PM 35.6 °F 24.2 °F 32.0 °F 87% 29.66 in 10.0 mi WSW 21.9 mph 31.1 mph N/A   Overcast
2:15 PM 35.6 °F 25.5 °F 32.0 °F 87% 29.67 in 7.0 mi West 17.3 mph 26.5 mph N/A Rain Light Rain
2:35 PM 35.6 °F 24.5 °F 32.0 °F 87% 29.68 in 10.0 mi WSW 20.7 mph 35.7 mph 0.01 in Rain Rain
2:55 PM 37.4 °F 27.2 °F 32.0 °F 81% 29.69 in 10.0 mi West 19.6 mph 27.6 mph 0.01 in   Overcast
3:15 PM 35.6 °F 24.8 °F 30.2 °F 81% 29.70 in 10.0 mi WSW 19.6 mph 32.2 mph N/A   Overcast
3:35 PM 35.6 °F 24.8 °F 32.0 °F 87% 29.70 in 10.0 mi WSW 19.6 mph 31.1 mph N/A   Light Drizzle
3:55 PM 37.4 °F 27.2 °F 32.0 °F 81% 29.71 in 10.0 mi WSW 19.6 mph 27.6 mph N/A   Overcast
4:15 PM 35.6 °F 26.6 °F 32.0 °F 87% 29.71 in 4.0 mi WSW 13.8 mph 26.5 mph N/A Snow Light Snow
4:35 PM 35.6 °F 25.9 °F 32.0 °F 87% 29.71 in 10.0 mi WSW 16.1 mph 25.3 mph N/A   Overcast
4:55 PM 35.6 °F 24.5 °F 32.0 °F 87% 29.72 in 7.0 mi WSW 20.7 mph 25.3 mph N/A   Drizzle
5:15 PM 35.6 °F 24.5 °F 32.0 °F 87% 29.73 in 10.0 mi WSW 20.7 mph 27.6 mph N/A   Overcast
5:35 PM 35.6 °F 25.2 °F 32.0 °F 87% 29.73 in 7.0 mi WSW 18.4 mph 25.3 mph N/A Snow Light Snow
5:55 PM 35.6 °F 25.5 °F 32.0 °F 87% 29.75 in 10.0 mi WSW 17.3 mph 27.6 mph N/A   Overcast
6:15 PM 35.6 °F 23.7 °F 32.0 °F 87% 29.76 in 10.0 mi West 24.2 mph 28.8 mph 0.01 in   Overcast
6:35 PM 35.6 °F 25.2 °F 30.2 °F 81% 29.77 in 10.0 mi WSW 18.4 mph 27.6 mph 0.01 in   Overcast
6:55 PM 35.6 °F 25.9 °F 30.2 °F 81% 29.78 in 10.0 mi West 16.1 mph 29.9 mph 0.01 in   Overcast
7:15 PM 35.6 °F 23.7 °F 28.4 °F 75% 29.78 in 10.0 mi West 24.2 mph 31.1 mph N/A   Overcast
7:35 PM 35.6 °F 25.9 °F 30.2 °F 81% 29.79 in 10.0 mi WSW 16.1 mph 26.5 mph N/A   Overcast
7:55 PM 35.6 °F 25.9 °F 30.2 °F 81% 29.80 in 10.0 mi West 16.1 mph 23.0 mph N/A   Overcast
8:15 PM 35.6 °F 25.9 °F 30.2 °F 81% 29.81 in 10.0 mi West 16.1 mph 27.6 mph N/A   Overcast
8:35 PM 35.6 °F 25.9 °F 30.2 °F 81% 29.81 in 10.0 mi WSW 16.1 mph 19.6 mph N/A   Overcast
8:55 PM 35.6 °F 27.1 °F 30.2 °F 81% 29.83 in 10.0 mi West 12.7 mph 25.3 mph N/A   Overcast
9:15 PM 35.6 °F 25.5 °F 30.2 °F 81% 29.83 in 10.0 mi WSW 17.3 mph 25.3 mph N/A   Overcast
9:35 PM 35.6 °F 26.6 °F 30.2 °F 81% 29.84 in 10.0 mi WSW 13.8 mph 23.0 mph N/A   Overcast
9:55 PM 35.6 °F 25.5 °F 30.2 °F 81% 29.85 in 10.0 mi WSW 17.3 mph 25.3 mph N/A   Overcast
10:15 PM 35.6 °F 24.8 °F 30.2 °F 81% 29.85 in 10.0 mi WSW 19.6 mph 26.5 mph N/A   Overcast
10:35 PM 35.6 °F 26.6 °F 30.2 °F 81% 29.85 in 10.0 mi WSW 13.8 mph 25.3 mph N/A   Overcast
10:55 PM 35.6 °F 26.2 °F 30.2 °F 81% 29.86 in 10.0 mi WSW 15.0 mph 20.7 mph N/A Snow Light Snow
11:15 PM 33.8 °F 22.2 °F 30.2 °F 87% 29.87 in 5.0 mi West 20.7 mph 31.1 mph N/A Snow Light Snow
11:35 PM 33.8 °F 23.9 °F 30.2 °F 87% 29.87 in 10.0 mi West 15.0 mph - N/A   Mostly Cloudy
11:55 PM 33.8 °F 23.2 °F 30.2 °F 87% 29.87 in 10.0 mi West 17.3 mph 28.8 mph N/A   Overcast